TK5EP-13 Weather Reports


time (UTC)temp
C
wind
direction
speed
KPH
gust
KPH
rain 1hr
cm
rain 24hr
cm
rain mn
cm
humidity
%
barometer
mb
20260508085442 14 331 6.4 11.3 0.00 0.00 0.00 76
20260508084941 13 298 6.4 8.0 0.00 0.00 0.00 74
20260508084440 13 288 4.8 8.0 0.00 0.00 0.00 72
20260508083939 13 305 4.8 9.7 0.00 0.00 0.00 69
20260508083438 13 270 6.4 9.7 0.00 0.00 0.00 68
20260508082934 13 265 8.0 12.9 0.00 0.00 0.00 68
20260508082433 13 228 8.0 12.9 0.00 0.00 0.00 68
20260508081932 13 225 9.7 12.9 0.00 0.00 0.00 66
20260508081432 13 221 9.7 12.9 0.00 0.00 0.00 67
20260508080931 13 212 9.7 14.5 0.00 0.00 0.00 68
20260508080430 12 214 11.3 14.5 0.00 0.00 0.00 67
20260508075929 12 191 11.3 12.9 0.00 0.00 0.00 70
20260508075428 12 181 9.7 11.3 0.00 0.00 0.00 73
20260508074927 12 181 9.7 11.3 0.00 0.00 0.00 74
20260508074426 12 179 8.0 9.7 0.00 0.00 0.00 75
20260508073926 12 180 8.0 9.7 0.00 0.00 0.00 75
20260508073422 12 180 9.7 11.3 0.00 0.00 0.00 76
20260508072921 12 180 9.7 11.3 0.00 0.00 0.00 76
20260508072420 12 157 9.7 11.3 0.00 0.00 0.00 77
20260508071918 12 171 9.7 11.3 0.00 0.00 0.00 77
20260508071418 12 137 9.7 11.3 0.00 0.00 0.00 78
20260508070917 12 146 9.7 11.3 0.00 0.00 0.00 79
20260508070416 12 137 8.0 9.7 0.00 0.00 0.00 79
20260508065915 12 135 8.0 9.7 0.00 0.00 0.00 80
20260508065414 12 135 9.7 9.7 0.00 0.00 0.00 80
20260508064913 12 136 8.0 9.7 0.00 0.00 0.00 82
20260508064410 12 135 8.0 9.7 0.00 0.00 0.00 83
20260508063908 11 132 6.4 9.7 0.00 0.00 0.00 85
20260508063407 11 126 6.4 9.7 0.00 0.00 0.00 86
20260508062906 11 127 4.8 9.7 0.00 0.00 0.00 87
20260508062405 11 134 6.4 9.7 0.00 0.00 0.00 88
20260508061904 11 136 8.0 11.3 0.00 0.00 0.00 88
20260508061404 11 135 8.0 12.9 0.00 0.00 0.00 88
20260508060903 11 135 8.0 12.9 0.00 0.00 0.00 88
20260508060402 11 136 9.7 12.9 0.00 0.00 0.00 88
20260508055901 11 137 9.7 12.9 0.00 0.00 0.00 88
20260508055400 11 139 11.3 12.9 0.00 0.00 0.00 88
20260508054859 11 138 11.3 12.9 0.00 0.00 0.00 88
20260508054359 11 136 9.7 12.9 0.00 0.00 0.00 87
20260508053858 11 135 8.0 12.9 0.00 0.00 0.00 86
20260508053357 11 131 8.0 12.9 0.00 0.00 0.00 86
20260508052856 11 137 8.0 14.5 0.00 0.00 0.00 86
20260508052355 11 150 11.3 16.1 0.00 0.00 0.00 85
20260508051854 11 163 9.7 16.1 0.00 0.00 0.00 84
20260508051353 11 174 12.9 19.3 0.00 0.00 0.00 83
20260508050852 11 173 12.9 19.3 0.00 0.00 0.00 82
20260508050352 11 180 11.3 17.7 0.00 0.00 0.00 80
20260508045848 11 177 12.9 16.1 0.00 0.00 0.00 79
20260508045347 11 178 12.9 16.1 0.00 0.00 0.00 76
20260508044846 12 179 11.3 16.1 0.00 0.00 0.00 73
20260508044345 12 181 11.3 14.5 0.00 0.00 0.00 69
20260508043844 12 180 9.7 17.7 0.00 0.00 0.00 64
20260508043344 12 203 14.5 20.9 0.00 0.00 0.00 58
20260508042840 12 222 16.1 20.9 0.00 0.00 0.00 56
20260508042339 12 215 17.7 20.9 0.00 0.00 0.00 53
20260508041838 12 223 17.7 19.3 0.00 0.00 0.00 53
20260508041335 12 215 14.5 25.7 0.00 0.00 0.00 51
20260508040833 12 224 19.3 27.4 0.00 0.00 0.00 48
20260508040333 12 224 19.3 27.4 0.00 0.00 0.00 51
20260508035832 11 220 17.7 20.9 0.00 0.00 0.00 58
20260508035331 12 193 14.5 17.7 0.00 0.00 0.00 67
20260508034830 12 193 11.3 17.7 0.00 0.00 0.00 61
20260508034329 12 220 12.9 16.1 0.00 0.00 0.00 59
20260508033828 11 224 12.9 14.5 0.00 0.00 0.00 60
20260508033327 12 186 11.3 14.5 0.00 0.00 0.00 65
20260508032827 12 182 12.9 14.5 0.00 0.00 0.00 62
20260508032326 12 216 11.3 14.5 0.00 0.00 0.00 55
20260508031825 12 197 9.7 14.5 0.00 0.00 0.00 51
20260508031324 13 220 11.3 14.5 0.00 0.00 0.00 41
20260508030823 13 226 11.3 14.5 0.00 0.00 0.00 40
20260508030322 13 225 11.3 14.5 0.00 0.00 0.00 39
20260508025822 13 225 11.3 14.5 0.00 0.00 0.00 38
20260508025321 13 225 12.9 14.5 0.00 0.00 0.00 38
20260508024820 13 225 11.3 11.3 0.00 0.00 0.00 37
20260508024319 13 225 9.7 11.3 0.00 0.00 0.00 36
20260508023818 13 225 9.7 11.3 0.00 0.00 0.00 36
20260508023317 13 225 9.7 12.9 0.00 0.00 0.00 36
20260508022816 13 225 11.3 12.9 0.00 0.00 0.00 36
20260508022316 13 245 11.3 11.3 0.00 0.00 0.00 36
20260508021815 13 226 9.7 11.3 0.00 0.00 0.00 35
20260508021314 13 270 9.7 9.7 0.00 0.00 0.00 35
20260508020813 13 233 9.7 9.7 0.00 0.00 0.00 35
20260508020312 13 270 9.7 11.3 0.00 0.00 0.00 35
20260508015811 13 270 9.7 11.3 0.00 0.00 0.00 35
20260508015308 13 270 11.3 11.3 0.00 0.00 0.00 35
20260508014807 13 270 9.7 11.3 0.00 0.00 0.00 34
20260508014306 13 270 9.7 9.7 0.00 0.00 0.00 36
20260508013805 13 270 8.0 9.7 0.00 0.00 0.00 37
20260508013304 13 270 9.7 12.9 0.00 0.00 0.00 36
20260508012801 13 270 11.3 12.9 0.00 0.00 0.00 36
20260508012300 13 270 11.3 14.5 0.00 0.00 0.00 38
20260508011759 13 270 12.9 14.5 0.00 0.00 0.00 40
20260508011258 13 270 11.3 12.9 0.00 0.00 0.00 41
20260508010757 13 270 12.9 12.9 0.00 0.00 0.00 42
20260508010256 13 270 9.7 12.9 0.00 0.00 0.00 38
20260508005755 13 270 11.3 12.9 0.00 0.00 0.00 37
20260508005255 13 270 11.3 12.9 0.00 0.00 0.00 38
20260508004754 13 270 12.9 12.9 0.00 0.00 0.00 40
20260508004253 13 270 9.7 12.9 0.00 0.00 0.00 39
20260508003752 13 270 11.3 12.9 0.00 0.00 0.00 39
20260508003251 13 270 12.9 12.9 0.00 0.00 0.00 39
20260508002750 13 270 11.3 12.9 0.00 0.00 0.00 41
20260508002247 13 270 9.7 11.3 0.00 0.00 0.00 42
20260508001746 13 270 9.7 11.3 0.00 0.00 0.00 43
20260508001245 13 270 11.3 11.3 0.00 0.00 0.00 47
20260508000744 13 270 11.3 11.3 0.00 0.00 0.00 54
20260508000243 13 270 9.7 11.3 0.00 0.00 0.00 49
20260507235742 13 270 9.7 11.3 0.00 0.00 0.00 50
20260507235242 13 270 9.7 9.7 0.00 0.00 0.00 53
20260507234741 13 270 9.7 9.7 0.00 0.00 0.00 52
20260507234240 13 270 9.7 11.3 0.00 0.00 0.00 55
20260507233739 13 315 11.3 12.9 0.00 0.00 0.00 58
20260507233238 13 315 11.3 12.9 0.00 0.00 0.00 59
20260507232737 13 315 9.7 9.7 0.00 0.00 0.00 54
20260507232236 13 315 6.4 11.3 0.00 0.00 0.00 52
20260507231736 13 316 9.7 12.9 0.00 0.00 0.00 54
20260507231235 13 316 11.3 12.9 0.00 0.00 0.00 54
20260507230731 13 315 9.7 11.3 0.00 0.00 0.00 54
20260507230230 13 315 8.0 8.0 0.00 0.00 0.00 54
20260507225730 13 315 8.0 9.7 0.00 0.00 0.00 55
20260507225229 13 315 8.0 9.7 0.00 0.00 0.00 56
20260507224728 13 315 4.8 9.7 0.00 0.00 0.00 56
20260507224227 13 315 6.4 9.7 0.00 0.00 0.00 55
20260507223726 13 316 8.0 9.7 0.00 0.00 0.00 55
20260507223224 13 319 8.0 9.7 0.00 0.00 0.00 55
20260507222724 13 315 8.0 9.7 0.00 0.00 0.00 55
20260507222223 13 318 6.4 9.7 0.00 0.00 0.00 54
20260507221722 13 0 9.7 9.7 0.00 0.00 0.00 54
20260507221221 13 0 9.7 9.7 0.00 0.00 0.00 54
20260507220720 13 334 8.0 8.0 0.00 0.00 0.00 54
20260507220219 13 0 4.8 6.4 0.00 0.00 0.00 55
20260507215718 13 0 4.8 8.0 0.00 0.00 0.00 55
20260507215217 13 0 6.4 8.0 0.00 0.00 0.00 55
20260507214716 13 2 4.8 9.7 0.00 0.00 0.00 55
20260507214216 13 0 8.0 9.7 0.00 0.00 0.00 56
20260507213715 13 2 8.0 9.7 0.00 0.00 0.00 57
20260507213214 12 0 6.4 8.0 0.00 0.00 0.00 59
20260507212710 12 0 4.8 8.0 0.00 0.00 0.00 61
20260507212209 12 135 4.8 8.0 0.00 0.00 0.00 62
20260507211708 12 155 6.4 9.7 0.00 0.00 0.00 62
20260507211208 12 174 6.4 11.3 0.00 0.00 0.00 62
20260507210707 12 175 8.0 11.3 0.00 0.00 0.00 62
20260507210206 12 174 4.8 6.4 0.00 0.00 0.00 62
20260507205705 13 180 6.4 6.4 0.00 0.00 0.00 62
20260507205201 13 175 1.6 6.4 0.00 0.00 0.00 64
20260507204701 13 43 3.2 6.4 0.00 0.00 0.00 64
20260507204200 13 44 4.8 6.4 0.00 0.00 0.00 63
20260507203659 13 3 3.2 8.0 0.00 0.00 0.00 62
20260507203158 13 315 6.4 9.7 0.00 0.00 0.00 61
20260507202657 13 59 4.8 9.7 0.00 0.00 0.00 60
20260507202154 13 135 8.0 9.7 0.00 0.00 0.00 56
20260507201653 12 135 8.0 11.3 0.00 0.00 0.00 54
20260507201152 13 135 11.3 12.9 0.00 0.00 0.00 52
20260507200648 13 136 11.3 12.9 0.00 0.00 0.00 55
20260507200148 13 135 9.7 12.9 0.00 0.00 0.00 55
20260507195647 13 133 8.0 11.3 0.00 0.00 0.00 54
20260507195146 13 138 9.7 11.3 0.00 0.00 0.00 52
20260507194645 13 141 8.0 11.3 0.00 0.00 0.00 52
20260507194142 13 148 9.7 11.3 0.00 0.00 0.00 51
20260507193641 13 151 9.7 11.3 0.00 0.00 0.00 51
20260507193140 13 154 8.0 9.7 0.00 0.00 0.00 51
20260507192636 13 144 8.0 9.7 0.00 0.00 0.00 51
20260507192135 13 140 6.4 9.7 0.00 0.00 0.00 50
20260507191634 13 150 6.4 9.7 0.00 0.00 0.00 50
20260507191134 13 155 8.0 11.3 0.00 0.00 0.00 49
20260507190633 13 144 6.4 11.3 0.00 0.00 0.00 49
20260507190132 13 154 9.7 12.9 0.00 0.00 0.00 48
20260507185631 13 174 11.3 14.5 0.00 0.00 0.00 46
20260507185130 13 177 11.3 14.5 0.00 0.00 0.00 47
20260507184629 13 159 11.3 12.9 0.00 0.00 0.00 49
20260507184126 13 136 4.8 9.7 0.00 0.00 0.00 51
20260507183625 13 109 4.8 9.7 0.00 0.00 0.00 50
20260507183124 13 121 4.8 9.7 0.00 0.00 0.00 52
20260507182623 13 107 3.2 8.0 0.00 0.00 0.00 53
20260507182122 13 112 3.2 8.0 0.00 0.00 0.00 53
20260507181619 13 105 3.2 8.0 0.00 0.00 0.00 53
20260507181118 13 95 6.4 9.7 0.00 0.00 0.00 53
20260507180617 13 91 6.4 8.0 0.00 0.00 0.00 51
20260507180116 14 96 6.4 8.0 0.00 0.00 0.00 50
20260507175615 14 91 6.4 6.4 0.00 0.00 0.00 49
20260507175115 14 90 6.4 8.0 0.00 0.00 0.00 50
20260507174614 15 90 4.8 6.4 0.00 0.00 0.00 50
20260507174110 16 81 1.6 3.2 0.00 0.00 0.00 49
20260507173609 16 166 1.6 4.8 0.00 0.00 0.00 49
20260507173106 16 186 1.6 6.4 0.00 0.00 0.00 50
20260507172605 17 217 3.2 9.7 0.00 0.00 0.00 54
20260507172104 17 313 4.8 9.7 0.00 0.00 0.00 52
20260507171603 17 25 1.6 9.7 0.00 0.00 0.00 56
20260507171102 17 271 0.0 11.3 0.00 0.00 0.00 61
20260507170559 16 257 4.8 11.3 0.00 0.00 0.00 64
20260507170058 16 266 8.0 12.9 0.00 0.00 0.00 64
20260507165557 16 259 6.4 14.5 0.00 0.00 0.00 67
20260507165056 16 276 6.4 19.3 0.00 0.00 0.00 67
20260507164555 15 267 11.3 19.3 0.00 0.00 0.00 68
20260507164055 16 276 11.3 19.3 0.00 0.00 0.00 66
20260507163554 16 274 11.3 20.9 0.00 0.00 0.00 66
20260507163053 15 267 12.9 20.9 0.00 0.00 0.00 64
20260507162552 15 245 9.7 19.3 0.00 0.00 0.00 64
20260507162051 15 233 12.9 20.9 0.00 0.00 0.00 65
20260507161550 15 262 16.1 22.5 0.00 0.00 0.00 63
20260507161049 15 268 16.1 22.5 0.00 0.00 0.00 62
20260507160549 15 277 12.9 24.1 0.00 0.00 0.00 59
20260507160048 15 266 14.5 24.1 0.00 0.00 0.00 56
20260507155046 14 268 17.7 24.1 0.00 0.00 0.00 56
20260507154545 15 270 14.5 25.7 0.00 0.00 0.00 54
20260507154044 15 260 17.7 25.7 0.00 0.00 0.00 53
20260507153541 15 280 12.9 25.7 0.00 0.00 0.00 52
20260507153040 15 270 12.9 25.7 0.00 0.00 0.00 56
20260507152540 15 275 16.1 25.7 0.00 0.00 0.00 51
20260507152038 15 267 16.1 25.7 0.00 0.00 0.00 53
20260507151537 15 267 12.9 22.5 0.00 0.00 0.00 56
20260507151036 15 277 9.7 22.5 0.00 0.00 0.00 57
20260507150535 15 264 12.9 24.1 0.00 0.00 0.00 58
20260507150034 14 259 16.1 27.4 0.00 0.00 0.00 58
20260507145533 14 268 17.7 27.4 0.00 0.00 0.00 59
20260507145032 15 275 16.1 25.7 0.00 0.00 0.00 59
20260507144531 15 264 16.1 25.7 0.00 0.00 0.00 56
20260507144031 15 271 14.5 24.1 0.00 0.00 0.00 57
20260507143529 14 297 16.1 24.1 0.00 0.00 0.00 57
20260507143029 15 266 14.5 24.1 0.00 0.00 0.00 59
20260507142528 15 252 14.5 27.4 0.00 0.00 0.00 59
20260507142027 15 245 16.1 27.4 0.00 0.00 0.00 59
20260507141526 15 258 14.5 24.1 0.00 0.00 0.00 59
20260507141025 15 256 16.1 24.1 0.00 0.00 0.00 55
20260507140523 15 263 11.3 20.9 0.00 0.00 0.00 54
20260507140019 15 270 11.3 22.5 0.00 0.00 0.00 57
20260507135518 15 265 14.5 25.7 0.00 0.00 0.00 57
20260507135018 15 254 16.1 25.7 0.00 0.00 0.00 57
20260507134514 15 271 16.1 30.6 0.00 0.00 0.00 59
20260507134013 15 258 17.7 30.6 0.00 0.00 0.00 58
20260507133512 15 264 14.5 27.4 0.00 0.00 0.00 55
20260507133010 15 257 17.7 27.4 0.00 0.00 0.00 57
20260507132509 15 268 16.1 27.4 0.00 0.00 0.00 55
20260507132009 15 244 16.1 24.1 0.00 0.00 0.00 54
20260507131508 15 264 12.9 24.1 0.00 0.00 0.00 54
20260507131007 15 274 12.9 24.1 0.00 0.00 0.00 58
20260507130506 15 269 14.5 29.0 0.00 0.00 0.00 59
20260507130005 15 252 17.7 29.0 0.00 0.00 0.00 62
20260507125504 15 270 16.1 29.0 0.00 0.00 0.00 61
20260507125003 15 260 12.9 25.7 0.00 0.00 0.00 60
20260507124502 15 251 14.5 24.1 0.00 0.00 0.00 62
20260507123959 15 253 14.5 24.1 0.00 0.00 0.00 62
20260507123458 14 267 17.7 25.7 0.00 0.00 0.00 63
20260507122957 15 263 17.7 25.7 0.00 0.00 0.00 64
20260507122456 14 259 14.5 27.4 0.00 0.00 0.00 65
20260507121955 14 265 14.5 27.4 0.00 0.00 0.00 64
20260507121454 14 257 12.9 24.1 0.00 0.00 0.00 66
20260507120953 14 269 12.9 27.4 0.00 0.00 0.00 67
20260507120453 14 259 17.7 29.0 0.00 0.00 0.00 67
20260507115952 14 261 17.7 29.0 0.00 0.00 0.00 67
20260507115451 14 262 17.7 29.0 0.00 0.00 0.00 67
20260507114950 15 247 14.5 22.5 0.00 0.00 0.00 67
20260507114449 15 259 16.1 24.1 0.00 0.00 0.00 66
20260507113948 15 233 14.5 24.1 0.00 0.00 0.00 65
20260507113447 15 261 14.5 24.1 0.00 0.00 0.00 61
20260507112946 15 256 12.9 20.9 0.00 0.00 0.00 61
20260507112443 15 260 11.3 20.9 0.00 0.00 0.00 60
20260507111942 15 230 14.5 22.5 0.00 0.00 0.00 60
20260507111441 15 248 11.3 20.9 0.00 0.00 0.00 61
20260507110940 15 263 12.9 24.1 0.00 0.00 0.00 62
20260507110439 15 264 11.3 24.1 0.00 0.00 0.00 62
20260507105938 15 244 11.3 22.5 0.00 0.00 0.00 60
20260507105437 15 255 9.7 24.1 0.00 0.00 0.00 60
20260507104936 15 258 9.7 17.7 0.00 0.00 0.00 60
20260507104436 15 239 6.4 14.5 0.00 0.00 0.00 60
20260507103934 15 281 8.0 19.3 0.00 0.00 0.00 60
20260507103429 15 279 9.7 19.3 0.00 0.00 0.00 63
20260507102928 15 275 11.3 19.3 0.00 0.00 0.00 61
20260507102427 15 271 9.7 20.9 0.00 0.00 0.00 62
20260507101927 15 267 12.9 20.9 0.00 0.00 0.00 62
20260507101426 15 255 12.9 19.3 0.00 0.00 0.00 62
20260507100925 15 263 9.7 17.7 0.00 0.00 0.00 62
20260507100424 15 250 12.9 17.7 0.00 0.00 0.00 63
20260507095923 15 265 12.9 19.3 0.00 0.00 0.00 64
20260507095422 15 272 9.7 19.3 0.00 0.00 0.00 62
20260507094919 15 239 9.7 20.9 0.00 0.00 0.00 63
20260507094418 15 250 16.1 20.9 0.00 0.00 0.00 62
20260507093917 15 262 12.9 17.7 0.00 0.00 0.00 60
20260507093416 15 261 9.7 16.1 0.00 0.00 0.00 59
20260507092913 16 265 12.9 16.1 0.00 0.00 0.00 59
20260507092412 16 260 11.3 16.1 0.00 0.00 0.00 56
20260507091910 17 238 8.0 16.1 0.00 0.00 0.00 53
20260507091409 17 224 4.8 11.3 0.00 0.00 0.00 51
20260507090908 16 208 4.8 9.7 0.00 0.00 0.00 49
20260507090407 16 252 4.8 11.3 0.00 0.00 0.00 47
20260507085907 16 257 8.0 11.3 0.00 0.00 0.00 46